Location: Chandrammap?lem
(16.9200°N, 81.0051°E)
Time: 20:41:42
(UTC+00:00)

ATLAS 2AS CENTAUR R/B - Pass Details

Date: 29 May 2024
Orbit: 1017 x 1194 km, 63.7° (Epoch: 16 June)

Event Time Altitude Azimuth Distance (km) Brightness Sun altitude
Rises 20:34:52 0° 352° (N) 3,799 6.1 -41.2°
Reaches altitude 10° 20:38:00 10° 5° (N) 2,825 5.4 -40.7°
Maximum altitude 20:43:23 26° 60° (ENE) 1,884 4.4 -39.9°
Drops below altitude 10° 20:48:42 10° 115° (ESE) 2,794 5.0 -39.1°
Sets 20:51:46 0° 127° (SE) 3,747 5.6 -38.6°
